Location: Corralito
(14.1667°N, 87.1833°W)
Time: 09:34:48
(UTC+00:00)

Delta 198 - Pass Details

Date: 07 June 2020
Orbit: 458 x 1020 km, 24.8° (Epoch: 11 July)

Event Time Altitude Azimuth Distance (km) Brightness Sun altitude
Rises 01:21:20 0° 290° (WNW) 3,466 9.2 -15.1°
Reaches altitude 10° 01:24:07 10° 289° (WNW) 2,439 7.9 -15.7°
Maximum altitude 01:29:55 76° 204° (SSW) 757 3.9 -16.9°
Enters shadow 01:32:16 32° 123° (ESE) 1,182 4.4 -17.4°
